When you browse on this site, cookies collect data to enhance your experience and personalize the content and advertising you see.
Visit our Privacy Policy to learn more. By continuing to use the site, you agree to this use of cookies and data.
  • In Österreich
  • Länderverzeichnis
  • Für 7 Tage
  • Wassertemperatur
  • Wetterkarte
  • News
  • Widgets
  • user-avatar
    Anmelden

    Stündliche Wetter Galata

    Heute, 18 Oktober, Freitag

    Zeit Temperatur Niederschläge Wind Luftdruck Luftfeuchtigkeit
    00:00 +14°C° 0 mm 0 m/S 758 mmHg 89%
    01:00 +14°C° 0 mm 0 m/S 758 mmHg 88%
    02:00 +15°C° 0 mm 1 m/S 758 mmHg 87%
    03:00 +14°C° 0 mm 1 m/S 758 mmHg 85%
    04:00 +14°C° 0 mm 1 m/S 757 mmHg 84%
    05:00 +14°C° 0 mm 1 m/S 757 mmHg 83%
    06:00 +15°C° 0 mm 1 m/S 757 mmHg 79%
    07:00 +16°C° 0 mm 1 m/S 758 mmHg 75%
    08:00 +16°C° 0 mm 0 m/S 758 mmHg 71%
    09:00 +17°C° 0 mm 0 m/S 758 mmHg 65%
    10:00 +21°C° 0 mm 1 m/S 758 mmHg 58%
    11:00 +23°C° 0 mm 1 m/S 758 mmHg 52%
    12:00 +23°C° 0 mm 1 m/S 758 mmHg 50%
    13:00 +24°C° 0 mm 1 m/S 757 mmHg 49%
    14:00 +24°C° 0 mm 1 m/S 757 mmHg 47%
    15:00 +23°C° 0 mm 1 m/S 757 mmHg 54%
    16:00 +20°C° 0 mm 2 m/S 757 mmHg 61%
    17:00 +19°C° 0 mm 2 m/S 756 mmHg 68%
    18:00 +19°C° 0 mm 1 m/S 757 mmHg 72%
    19:00 +18°C° 0 mm 1 m/S 757 mmHg 77%
    20:00 +16°C° 0 mm 1 m/S 757 mmHg 81%
    21:00 +16°C° 0 mm 1 m/S 757 mmHg 83%
    22:00 +16°C° 0 mm 1 m/S 757 mmHg 84%
    23:00 +16°C° 0 mm 1 m/S 757 mmHg 85%

    Morgen, 19 Oktober, Samstag

    Zeit Temperatur Niederschläge Wind Luftdruck Luftfeuchtigkeit
    00:00 +15°C° 0 mm 1 m/S 757 mmHg 85%
    01:00 +15°C° 0 mm 1 m/S 757 mmHg 85%
    02:00 +14°C° 0 mm 0 m/S 757 mmHg 85%
    03:00 +14°C° 0 mm 0 m/S 757 mmHg 85%
    04:00 +14°C° 0 mm 0 m/S 757 mmHg 84%
    05:00 +14°C° 0 mm 0 m/S 757 mmHg 83%
    06:00 +14°C° 0 mm 0 m/S 757 mmHg 81%
    07:00 +15°C° 0 mm 0 m/S 758 mmHg 78%
    08:00 +18°C° 0 mm 1 m/S 758 mmHg 75%
    09:00 +19°C° 0 mm 1 m/S 758 mmHg 69%
    10:00 +21°C° 0 mm 1 m/S 758 mmHg 63%
    11:00 +23°C° 0 mm 2 m/S 758 mmHg 57%
    12:00 +23°C° 0 mm 2 m/S 758 mmHg 56%
    13:00 +24°C° 0 mm 2 m/S 758 mmHg 55%
    14:00 +24°C° 0 mm 2 m/S 757 mmHg 54%
    15:00 +23°C° 0 mm 2 m/S 757 mmHg 60%
    16:00 +20°C° 0 mm 2 m/S 757 mmHg 66%
    17:00 +19°C° 0 mm 2 m/S 757 mmHg 73%
    18:00 +18°C° 0 mm 2 m/S 757 mmHg 76%
    19:00 +17°C° 0 mm 2 m/S 758 mmHg 80%
    20:00 +17°C° 0 mm 2 m/S 758 mmHg 83%
    21:00 +16°C° 0 mm 2 m/S 758 mmHg 84%
    22:00 +16°C° 0 mm 2 m/S 758 mmHg 85%
    23:00 +16°C° 0 mm 1 m/S 759 mmHg 86%

    übermorgen, 20 Oktober, Sonntag

    Zeit Temperatur Niederschläge Wind Luftdruck Luftfeuchtigkeit
    00:00 +16°C° 0 mm 1 m/S 758 mmHg 86%
    01:00 +15°C° 0 mm 1 m/S 758 mmHg 86%
    02:00 +15°C° 0 mm 1 m/S 758 mmHg 86%
    03:00 +15°C° 0 mm 1 m/S 758 mmHg 86%
    04:00 +15°C° 0 mm 1 m/S 758 mmHg 86%
    05:00 +15°C° 0 mm 1 m/S 759 mmHg 86%
    06:00 +16°C° 0 mm 1 m/S 759 mmHg 83%
    07:00 +16°C° 0 mm 1 m/S 759 mmHg 81%
    08:00 +18°C° 0 mm 1 m/S 759 mmHg 78%
    09:00 +20°C° 0 mm 1 m/S 759 mmHg 71%
    10:00 +20°C° 0 mm 2 m/S 759 mmHg 64%
    11:00 +23°C° 0 mm 2 m/S 760 mmHg 57%
    12:00 +23°C° 0 mm 2 m/S 759 mmHg 56%
    13:00 +23°C° 0 mm 2 m/S 759 mmHg 54%
    14:00 +24°C° 0 mm 2 m/S 759 mmHg 53%
    15:00 +21°C° 0 mm 2 m/S 759 mmHg 58%
    16:00 +20°C° 0 mm 2 m/S 759 mmHg 64%
    17:00 +19°C° 0 mm 2 m/S 759 mmHg 69%
    18:00 +18°C° 0 mm 2 m/S 759 mmHg 73%
    19:00 +17°C° 0 mm 2 m/S 759 mmHg 77%
    20:00 +18°C° 0 mm 1 m/S 759 mmHg 81%
    21:00 +16°C° 0 mm 1 m/S 759 mmHg 82%
    22:00 +16°C° 0 mm 1 m/S 760 mmHg 83%
    23:00 +15°C° 0 mm 1 m/S 760 mmHg 84%

    21 Oktober, Montag

    Zeit Temperatur Niederschläge Wind Luftdruck Luftfeuchtigkeit
    00:00 +15°C° 0 mm 1 m/S 760 mmHg 84%
    01:00 +14°C° 0 mm 0 m/S 759 mmHg 84%
    02:00 +14°C° 0 mm 0 m/S 759 mmHg 84%
    03:00 +14°C° 0 mm 0 m/S 759 mmHg 83%
    04:00 +13°C° 0 mm 0 m/S 759 mmHg 83%
    05:00 +13°C° 0 mm 0 m/S 760 mmHg 82%
    06:00 +14°C° 0 mm 0 m/S 760 mmHg 78%
    07:00 +15°C° 0 mm 0 m/S 760 mmHg 75%
    08:00 +16°C° 0 mm 0 m/S 760 mmHg 71%
    09:00 +19°C° 0 mm 1 m/S 760 mmHg 64%
    10:00 +21°C° 0 mm 1 m/S 760 mmHg 57%
    11:00 +23°C° 0 mm 2 m/S 760 mmHg 50%
    12:00 +23°C° 0 mm 2 m/S 760 mmHg 48%
    13:00 +24°C° 0 mm 2 m/S 760 mmHg 47%
    14:00 +24°C° 0 mm 2 m/S 760 mmHg 46%
    15:00 +23°C° 0 mm 2 m/S 760 mmHg 52%
    16:00 +20°C° 0 mm 2 m/S 759 mmHg 58%
    17:00 +20°C° 0 mm 1 m/S 759 mmHg 64%
    18:00 +19°C° 0 mm 1 m/S 759 mmHg 67%
    19:00 +18°C° 0 mm 1 m/S 759 mmHg 70%
    20:00 +16°C° 0 mm 1 m/S 760 mmHg 74%
    21:00 +16°C° 0 mm 1 m/S 760 mmHg 74%
    22:00 +15°C° 0 mm 0 m/S 760 mmHg 75%
    23:00 +15°C° 0 mm 0 m/S 760 mmHg 75%

    22 Oktober, Dienstag

    Zeit Temperatur Niederschläge Wind Luftdruck Luftfeuchtigkeit
    00:00 +15°C° 0 mm 0 m/S 760 mmHg 75%
    01:00 +14°C° 0 mm 0 m/S 760 mmHg 76%
    02:00 +15°C° 0 mm 1 m/S 759 mmHg 76%
    03:00 +15°C° 0 mm 1 m/S 759 mmHg 75%
    04:00 +15°C° 0 mm 1 m/S 759 mmHg 75%
    05:00 +15°C° 0 mm 1 m/S 759 mmHg 74%
    06:00 +16°C° 0 mm 1 m/S 759 mmHg 70%
    07:00 +18°C° 0 mm 1 m/S 760 mmHg 66%
    08:00 +18°C° 0 mm 1 m/S 760 mmHg 62%
    09:00 +20°C° 0 mm 1 m/S 760 mmHg 56%
    10:00 +22°C° 0 mm 1 m/S 760 mmHg 50%
    11:00 +22°C° 0 mm 0 m/S 760 mmHg 43%
    12:00 +25°C° 0 mm 1 m/S 760 mmHg 42%
    13:00 +25°C° 0 mm 1 m/S 759 mmHg 40%
    14:00 +26°C° 0 mm 1 m/S 759 mmHg 38%
    15:00 +24°C° 0 mm 1 m/S 759 mmHg 45%
    16:00 +23°C° 0 mm 1 m/S 759 mmHg 52%
    17:00 +20°C° 0 mm 2 m/S 759 mmHg 58%
    18:00 +20°C° 0 mm 1 m/S 759 mmHg 61%
    19:00 +19°C° 0 mm 1 m/S 759 mmHg 64%
    20:00 +18°C° 0 mm 1 m/S 759 mmHg 67%
    21:00 +18°C° 0 mm 1 m/S 759 mmHg 67%
    22:00 +18°C° 0 mm 1 m/S 760 mmHg 67%
    23:00 +18°C° 0 mm 1 m/S 760 mmHg 67%

    23 Oktober, Mittwoch

    Zeit Temperatur Niederschläge Wind Luftdruck Luftfeuchtigkeit
    00:00 +16°C° 0 mm 1 m/S 760 mmHg 66%
    01:00 +16°C° 0 mm 1 m/S 760 mmHg 65%
    02:00 +16°C° 0 mm 2 m/S 760 mmHg 64%
    03:00 +16°C° 0 mm 2 m/S 760 mmHg 65%
    04:00 +16°C° 0 mm 2 m/S 760 mmHg 65%
    05:00 +14°C° 0 mm 3 m/S 760 mmHg 66%
    06:00 +16°C° 0 mm 3 m/S 760 mmHg 66%
    07:00 +16°C° 0 mm 3 m/S 760 mmHg 65%
    08:00 +17°C° 0 mm 3 m/S 761 mmHg 65%
    09:00 +18°C° 0 mm 3 m/S 761 mmHg 62%
    10:00 +20°C° 0 mm 4 m/S 761 mmHg 59%
    11:00 +22°C° 0 mm 4 m/S 761 mmHg 55%
    12:00 +22°C° 0 mm 5 m/S 760 mmHg 56%
    13:00 +22°C° 0 mm 5 m/S 760 mmHg 57%
    14:00 +22°C° 0 mm 6 m/S 760 mmHg 57%
    15:00 +21°C° 0 mm 6 m/S 760 mmHg 62%
    16:00 +20°C° 0 mm 5 m/S 760 mmHg 67%
    17:00 +19°C° 0 mm 5 m/S 760 mmHg 72%
    18:00 +17°C° 0 mm 5 m/S 760 mmHg 77%
    19:00 +17°C° 0 mm 4 m/S 760 mmHg 81%
    20:00 +15°C° 0 mm 4 m/S 760 mmHg 85%
    21:00 +14°C° 0 mm 4 m/S 760 mmHg 87%
    22:00 +14°C° 0 mm 3 m/S 761 mmHg 88%
    23:00 +14°C° 0 mm 3 m/S 761 mmHg 90%
    Mehr zeigen